Flag for Switzerland Weather past 2 weeks in Lugano, Switzerland

Now
30 °F

Clear.


Feels Like: 30 °F
Forecast: 20 / 40 °F
Wind: 2 mph from North

Location: Lugano Airport

Current Time: Jan 28, 2015 at 1:12:27 AM

Latest Report: Jan 28, 2015 at 12:20 AM


Visibility: 10 mi

Pressure: 30.07 "Hg

Humidity: 69%

Dew point: 21 °F

Location of LuganoLocation

Historic Weather in Lugano — Graph

°F

Lugano temperature yesterday

Maximum temperature yesterday: 54 °F (at 2:50 PM)
Minimum temperature yesterday: 27 °F (at 4:20 AM)
Average temperature yesterday: 36 °F

Past Weeks' High & Low Weather Summary

 TemperatureHumidityPressure
High54 °F (Jan 23, 3:50 PM)100% (Jan 14, 11:50 PM)30.39 "Hg (Jan 14, 11:50 PM)
Low27 °F (Jan 13, 6:20 AM)16% (Jan 27, 2:50 PM)29.77 "Hg (Jan 24, 3:50 PM)
Average39 °F77%30.00 "Hg
* Reported Jan 12 11:20 PM — Jan 27 11:50 PM, Lugano, Weather by CustomWeather, © 2014

Note: Actual official high and low records may vary slightly from our data, if they occured in-between our weather recording intervals... More about our weather records

Advertising

Lugano weather history for previous 24 hours

 ConditionsComfort  
Time TempWeatherWind HumidityBarometerVisibility
11:50 PM
Jan 27
34 °FClear.2 mph56%30.07 "Hg10 mi
11:20 PM34 °FClear.2 mph60%30.07 "Hg10 mi
10:50 PM34 °FClear.2 mph56%30.07 "Hg10 mi
10:20 PM37 °FClear.1 mph41%30.07 "Hg10 mi
9:50 PM36 °FClear.2 mph48%30.07 "Hg10 mi
9:20 PM37 °FClear.2 mph45%30.07 "Hg10 mi
8:50 PM37 °FClear.1 mph48%30.04 "Hg10 mi
8:20 PM36 °FClear.1 mph52%30.04 "Hg10 mi
7:50 PM37 °FClear.2 mph45%30.04 "Hg10 mi
7:20 PM39 °FClear.2 mph42%30.01 "Hg10 mi
6:50 PM45 °FClear.2 mph25%30.01 "Hg10 mi
6:20 PM45 °FPassing clouds.5 mph25%30.01 "HgN/A
5:50 PM46 °FPassing clouds.8 mph21%29.98 "HgN/A
5:20 PM48 °FPassing clouds.9 mph20%29.98 "HgN/A
4:50 PM50 °FPassing clouds.10 mph19%29.98 "HgN/A
4:20 PM50 °FPassing clouds.10 mph19%29.95 "HgN/A
3:50 PM52 °FPassing clouds.12 mph19%29.95 "HgN/A
3:20 PM52 °FPassing clouds.10 mph19%29.95 "HgN/A
2:50 PM54 °FPassing clouds.13 mph16%29.95 "HgN/A
2:20 PM48 °FPassing clouds.3 mph46%29.95 "HgN/A
1:50 PM45 °FPassing clouds.5 mph46%29.95 "HgN/A
1:20 PM43 °FPassing clouds.3 mph49%29.95 "HgN/A
12:50 PM41 °FSunny.2 mph53%29.95 "Hg10 mi
12:20 PM39 °FSunny.2 mph52%29.98 "Hg10 mi
11:50 AM39 °FSunny.2 mph52%29.98 "Hg10 mi
11:20 AM37 °FSunny.3 mph65%29.98 "Hg10 mi
10:50 AM36 °FSunny.1 mph60%29.98 "Hg10 mi
10:20 AM34 °FSunny.1 mph70%29.98 "Hg10 mi
9:50 AM32 °FPassing clouds.1 mph75%29.98 "HgN/A
9:20 AM30 °FPassing clouds.1 mph75%30.01 "HgN/A
8:50 AM28 °FPassing clouds.1 mph80%30.01 "HgN/A
8:20 AM28 °FPassing clouds.2 mph80%29.98 "HgN/A
7:50 AM27 °FPassing clouds.1 mph86%30.01 "HgN/A
7:20 AM27 °FPassing clouds.1 mph86%29.98 "HgN/A
6:50 AM27 °FPassing clouds.1 mph86%30.01 "HgN/A
6:20 AM27 °FClear.1 mph86%30.01 "Hg10 mi
5:50 AM27 °FClear.2 mph86%30.01 "Hg10 mi
5:20 AM27 °FClear.1 mph86%30.01 "Hg10 mi
4:50 AM28 °FClear.3 mph80%30.04 "Hg10 mi
4:20 AM27 °FClear.1 mph86%30.04 "Hg10 mi
3:50 AM28 °FClear.2 mph86%30.04 "Hg10 mi
3:20 AM28 °FClear.2 mph86%30.07 "Hg10 mi
2:50 AM28 °FChilly.2 mph80%30.07 "HgN/A
2:20 AM30 °FClear.2 mph80%30.07 "HgN/A
1:50 AM28 °FChilly.1 mph80%30.09 "HgN/A
1:20 AM28 °FClear.2 mph86%30.09 "Hg10 mi
Weather by CustomWeather, © 2014

See weather overviewHow to use our weather pages